Flag for Germany Weather past 2 weeks in Plauen, Saxony, Germany

Now
72 °F

Partly sunny.


Feels Like: 77 °F
Forecast: 57 / 84 °F
Wind: 3 mph from Southeast

Location: Hof

Current Time: Aug 1, 2014 at 2:04:08 PM

Latest Report: Aug 1, 2014 at 1:00 PM


Visibility: 22 mi

Pressure: 29.85 "Hg

Humidity: 43%

Dew point: 48 °F

Location of PlauenLocation

Historic Weather in Plauen — Graph

°F

Plauen temperature yesterday

Maximum temperature yesterday: 70 °F (at 6:00 PM)
Minimum temperature yesterday: 59 °F (at 8:00 AM)
Average temperature yesterday: 64 °F

Past Weeks' High & Low Weather Summary

 TemperatureHumidityPressure
High87 °F (Jul 20, 4:00 PM)99% (Jul 29, 11:00 PM)30.15 "Hg (Jul 29, 11:00 PM)
Low52 °F (Aug 1, 6:00 AM)25% (Jul 19, 5:00 PM)29.69 "Hg (Jul 30, 2:00 AM)
Average67 °F70%29.88 "Hg
* Reported Jul 17 1:00 PM — Aug 1 1:00 PM, Plauen, Weather by CustomWeather, © 2014

Note: Actual official high and low records may vary slightly from our data, if they occured in-between our weather recording intervals... More about our weather records

Advertising

Plauen weather history for previous 24 hours

 ConditionsComfort  
Time TempWeatherWind HumidityBarometerVisibility
1:00 PM
Aug 1
72 °FPartly sunny.3 mph43%29.85 "Hg22 mi
12:00 PM71 °FScattered clouds.2 mph43%29.87 "Hg22 mi
11:00 AM67 °FScattered clouds.3 mph52%29.89 "Hg19 mi
10:00 AM67 °FScattered clouds.2 mph63%29.90 "Hg12 mi
9:00 AM63 °FScattered clouds.1 mph71%29.92 "Hg11 mi
8:00 AM58 °FScattered clouds.1 mph83%29.93 "Hg11 mi
7:00 AM55 °FPassing clouds.1 mph90%29.95 "Hg11 mi
6:00 AM52 °FFog.1 mph96%29.97 "Hg4 mi
4:00 AM53 °FClear.1 mph95%29.97 "Hg5 mi
3:00 AM54 °FClear.1 mph92%29.98 "Hg7 mi
2:00 AM55 °FClear.1 mph89%29.98 "Hg9 mi
1:00 AM56 °FClear.1 mph89%29.98 "Hg10 mi
12:00 AM58 °FClear.1 mph87%29.97 "Hg12 mi
11:00 PM
Jul 31
59 °FClear.1 mph83%29.96 "Hg13 mi
10:00 PM62 °FClear.1 mph71%29.94 "Hg15 mi
9:00 PM66 °FPassing clouds.1 mph60%29.92 "Hg25 mi
8:00 PM68 °FScattered clouds.2 mph53%29.91 "Hg28 mi
7:00 PM69 °FPassing clouds.1 mph51%29.90 "Hg31 mi
6:00 PM70 °FOvercast.1 mph52%29.91 "Hg28 mi
5:00 PM68 °FOvercast.2 mph55%29.93 "Hg25 mi
4:00 PM69 °FPartly sunny.2 mph52%29.92 "Hg25 mi
3:00 PM68 °FPartly sunny.2 mph53%29.93 "Hg22 mi
2:00 PM67 °FOvercast.2 mph58%29.93 "Hg25 mi
Weather by CustomWeather, © 2014

See weather overviewHow to use our weather pages